Miscellaneous Local Product
Issued by NWS Hastings, NE

Home | Current Version | Previous Version | Graphics & Text | Print | Product List | Glossary On
Versions: 1 2 3 4 5 6 7 8 9 10 11 12 13 14 15 16 17 18 19 20 21 22 23 24 25 26 27 28 29 30 31 32 33 34 35 36 37 38 39 40 41 42 43 44 45 46 47 48 49 50
000
AXUS43 KGID 220302
MISGRI

GID CWA HOURLY WEATHER ROUNDUP
NATIONAL WEATHER SERVICE HASTINGS NE
1000 PM CDT THU JUL 21 2016

NOTE: "FAIR" INDICATES FEW OR NO CLOUDS BELOW 12,000 FEET WITH NO
SIGNIFICANT WEATHER AND/OR OBSTRUCTIONS TO VISIBILITY.

...SOUTH CENTRAL NEBRASKA...

CITY           SKY/WX    TMP DP  RH WIND       PRES   REMARKS
GRAND ISLAND   CLEAR     87  74  64 S9        29.94R HX  95
HASTINGS       CLEAR     89  70  53 S8        29.95R HX  94
KEARNEY        CLEAR     84  75  74 CALM      29.96R HX  92
ORD            CLEAR     79  75  87 S5        29.94R
YORK           CLEAR     84  77  79 SE6       29.94R HX  94
AURORA         CLEAR     83  75  78 SE6       29.95R HX  90
LEXINGTON      CLEAR     82  76  82 N6        29.98R
HOLDREGE       CLEAR     82  76  82 CALM      29.96R HX  90
HEBRON         CLEAR     85  70  60 S7        29.94R HX  90

...NEBRASKA PANHANDLE...

CITY           SKY/WX    TMP DP  RH WIND       PRES   REMARKS
CHADRON        CLEAR     80  56  43 NE3       30.06R
ALLIANCE       CLEAR     79  60  52 E6        30.10R
SCOTTSBLUFF    PTCLDY    78  59  51 NE9       30.11R
SIDNEY         CLEAR     82  51  34 CALM      30.15R

...WESTERN AND NORTH CENTRAL NEBRASKA...

CITY           SKY/WX    TMP DP  RH WIND       PRES   REMARKS
VALENTINE      CLEAR     87  70  56 N7        30.00R HX  92
AINSWORTH      CLEAR     83  75  77 NE7       29.99R
ONEILL         CLEAR     84  73  70 S6        29.95R HX  91
BROKEN BOW     CLEAR     77  75  93 CALM      29.99R
IMPERIAL       CLEAR     83  66  56 NE6       30.04R
NORTH PLATTE   CLEAR     80  73  79 E3        30.01R
MCCOOK         CLEAR     84  69  60 NE7       29.98R

...EASTERN NEBRASKA...

CITY           SKY/WX    TMP DP  RH WIND       PRES   REMARKS
NORFOLK        CLEAR     82  78  88 E3        29.92R HX  91
SO SIOUX CITY  CLEAR     84  80  88 E5        29.91R HX  97
TEKAMAH        CLOUDY    85  80  85 NE5       29.90R HX  99
COLUMBUS       CLOUDY    84  73  70 S6        29.93R HX  91
ALBION         CLEAR     81  77  87 CALM      29.94R
OMAHA EPPLEY   CLOUDY    91  80  70 S10       29.90R HX 109
OFFUTT AFB     CLOUDY    85  82  88 E6        29.91R HX 102
MILLARD        CLOUDY    89  80  75 SE5       29.91R HX 105
LINCOLN        CLEAR     87  76  69 S9        29.92S HX  97
NEBRASKA CITY  PTCLDY    83  78  84 S8        29.94R HX  92
BEATRICE       CLEAR     88  73  60 S8        29.95R HX  96
FALLS CITY     CLEAR     87  77  72 S8        29.94R HX  99

...NORTHERN KANSAS...

CITY           SKY/WX    TMP DP  RH WIND       PRES   REMARKS
GOODLAND       CLEAR     83  59  44 N3        30.06R
HILL CITY      CLEAR     90  66  45 S9        29.95R HX  92
NORTON         CLEAR     88  57  35 CALM      29.95R
SMITH CENTER   CLEAR     84  66  54 SE8       29.93R
BELOIT         CLEAR     90  68  48 SE9       29.92R HX  93
HAYS           CLEAR     86  63  45 S13       29.96R
RUSSELL        CLEAR     88  65  46 S10       29.94R HX  90
CONCORDIA      CLEAR     88  66  48 S12       29.94R HX  90
SALINA         CLEAR     90  68  48 SE9       29.95R HX  94
TOPEKA         CLEAR     88  72  58 S9        29.97R HX  94



USA.gov is the U.S. government's official web portal to all federal, state and local government web resources and services.